Simultaneous Nadir Overpasses (SNOs) Predictions

Prediction of SNOs between GOES-16 and TERRA Satellite Orbit:

Table of predicted SNOs for the next 14.0 days since TLE Epoch: 10/26/2019
Index Date Time (GOES-16) GOES-16 Lat,Lon TERRA Lat,Lon Distance(km) Time Diff (sec)
1 10/27/2019 03:26:48 0.00, -75.20 0.10, -74.57 70.07 80
2 10/29/2019 03:14:37 0.00, -75.21 0.74, -71.62 407.21 80
3 10/29/2019 15:35:53 -0.00, -75.22 0.34, -76.78 177.77 80
4 10/31/2019 15:26:22 -0.00, -75.23 -0.29, -73.82 159.87 80
5 11/01/2019 03:47:47 0.00, -75.23 -0.77, -79.02 431.03 80
6 11/02/2019 15:11:31 -0.01, -75.25 -0.91, -70.87 497.95 80
7 11/03/2019 03:35:36 0.01, -75.25 -0.15, -76.07 92.77 80
8 11/05/2019 03:20:45 0.00, -75.28 0.46, -73.11 246.31 80
9 11/05/2019 15:44:41 0.00, -75.29 0.62, -78.27 338.17 80
10 11/07/2019 15:32:30 0.00, -75.33 0.01, -75.31 1.95 80




NCC Satellite Simultaneous Nadir Overpasses (SNOs) Prediction Service
